Location: Laterina
(43.5167°N, 11.7167°E)
Time: 06:01:35
(UTC+00:00)

Cosmos 1125 Rocket - Pass Details

Date: 21 June 2021
Orbit: 757 x 780 km, 74.0° (Epoch: 26 July)

Event Time Altitude Azimuth Distance (km) Brightness Sun altitude
Rises 02:10:24 0° 333° (NNW) 3,246 7.1 -11.9°
Reaches altitude 10° 02:12:51 10° 327° (NNW) 2,319 6.2 -11.6°
Maximum altitude 02:17:49 44° 257° (WSW) 1,063 3.9 -11.0°
Drops below altitude 10° 02:22:48 10° 186° (S) 2,317 5.5 -10.4°
Enters shadow 02:24:00 - 183° (S) 2,764 5.9 -10.2°
